[[{"header":{"parameterUnit":"m.s-1","parameterCategory":1,"la1":30.2991,"la2":30.254,"lo1":-89.0895,"lo2":-89.0444,"dy":0.0017,"dx":0.0017,"nx":28,"ny":28,"refTime":"2023-11-20T09:00:00:Z","depth":0,"parameterNumber":2,"parameterNumberName":"U-component_of_WINDS"},"data":[0,0,0,0,0,0,0,0,0,0,0,0,0,0,0,0,0,0,0,0,0,0,0,0,0,0,0,0,0,0,0,0,0,0,0,0,0,0,0,0,0,0,0,0,0,0,0,0,0,0,0,0,0,0,0,0,0,0,1.302,1.302,0,1.2978,1.2978,1.2977,1.2935,1.2935,1.2934,1.2934,1.289,1.2889,1.2888,0,0,0,0,0,0,0,0,0,0,0,0,0,1.3063,1.3063,1.302,1.302,1.3019,1.2978,1.2978,1.2977,1.2936,1.2935,1.2934,1.2934,1.289,1.2889,1.2888,0,0,0,0,0,0,0,0,0,0,0,0,0,1.3035,1.3062,1.302,1.2993,1.2991,1.2979,1.2978,1.2977,1.2936,1.2935,1.2934,1.2933,1.289,1.2889,1.2888,1.2899,0,0,1.2885,1.2885,0,0,0,0,0,0,0,0,1.3037,1.3034,1.2998,1.2995,1.2992,1.2961,1.2977,1.2951,1.2936,1.2956,1.2934,1.2933,1.2914,1.2911,1.2905,1.2897,1.2895,1.2885,1.2884,1.2884,1.2884,0,0,0,0,0,0,0,1.3039,1.3035,1.3003,1.2997,1.2994,1.2983,1.2978,1.2972,1.294,1.2955,1.2951,1.2947,1.2912,1.2906,1.2904,1.2894,1.2885,1.2884,1.2884,1.2883,1.2894,1.2895,0,0,0,0,0,0,1.3045,1.3037,1.3005,1.3002,1.3013,1.2983,1.2978,1.2972,1.294,1.2935,1.2948,1.2945,1.2908,1.2905,1.2902,1.2913,1.2884,1.2883,1.2882,1.2893,1.2894,1.2895,0,0,0,0,0,0,1.3046,1.3042,1.3006,1.3019,1.3013,1.2983,1.2977,1.2972,1.2965,1.2935,1.2929,1.2947,1.2907,1.2903,1.29,1.2911,1.2883,1.2882,1.2892,1.2893,1.2895,1.2935,0,0,0,0,0,0,1.3047,1.3043,1.3047,1.3019,1.3013,1.3006,1.2978,1.2971,1.2964,1.296,1.2933,1.2928,1.2906,1.2902,1.2899,1.2909,1.2881,1.2891,1.2893,1.2894,1.2932,1.2937,1.2942,0,0,0,0,0,1.3049,1.3059,1.3047,1.3043,1.3017,1.3006,1.3003,1.2978,1.2965,1.2968,1.295,1.2929,1.291,1.2902,1.2899,1.2908,1.289,1.2892,1.2894,1.293,1.2936,1.2942,0,0,0,0,0,0,1.3088,1.3055,1.3041,1.3043,1.3028,1.2999,1.3003,1.2985,1.2973,1.297,1.294,1.2934,1.2935,1.2921,1.2912,1.2918,1.2897,1.2899,1.2926,1.2932,1.2936,1.2939,1.288,0,0,0,0,0,1.3097,1.3091,1.3063,1.3067,1.306,1.3033,1.3027,1.301,1.2993,1.2986,1.2967,1.2951,1.2942,1.2936,1.2926,1.2931,1.2924,1.2936,1.294,1.2944,1.2946,1.2948,1.2953,1.2901,1.2901,1.2901,0,0,1.3114,1.3096,1.3094,1.3074,1.306,1.3055,1.3028,1.3023,1.3019,1.2985,1.2981,1.2967,1.2947,1.2949,1.2948,1.2937,1.2959,1.2947,1.295,1.2949,1.2951,1.2956,1.296,1.2903,1.2903,1.2902,0,0,1.3144,1.3129,1.3132,1.3119,1.3099,1.3082,1.3082,1.3057,1.3046,1.3042,1.3017,1.3012,1.2996,1.2984,1.2975,1.3003,1.2984,1.3,1.3024,1.3027,1.3031,1.3035,1.3045,1.3049,1.3002,1.3002,1.3002,0,1.3168,1.316,1.3135,1.3132,1.3125,1.3095,1.3097,1.3086,1.3064,1.3059,1.3048,1.3029,1.3013,1.3012,1.3019,1.3013,1.3013,1.3003,1.3033,1.3036,1.3039,1.3048,1.3052,1.3004,1.3004,1.3004,1.3003,0,1.3191,1.3186,1.319,1.3171,1.3163,1.3163,1.3138,1.3134,1.3118,1.3102,1.3099,1.308,1.3065,1.3064,1.3047,1.3061,1.3055,1.3038,1.3017,1.3046,1.3055,1.3058,1.3007,1.3007,1.3006,1.3005,0,0,1.3242,1.321,1.3212,1.3204,1.3181,1.3176,1.3175,1.3162,1.316,1.3146,1.3144,1.3133,1.3118,1.3109,1.3091,1.3094,1.3118,1.3077,1.3076,1.3085,1.3132,1.3144,1.3149,1.3105,1.3106,1.3106,1.3133,0,1.3268,1.3265,1.3243,1.3246,1.3242,1.3215,1.3214,1.32,1.3185,1.3179,1.3163,1.3155,1.3136,1.313,1.3132,1.3114,1.3126,1.3112,1.3103,1.3104,1.3109,1.3153,1.3165,1.3192,1.3137,1.3137,1.3137,0,1.3297,1.3287,1.329,1.3268,1.3265,1.3265,1.3252,1.3247,1.3231,1.322,1.3211,1.3191,1.3189,1.317,1.3167,1.3158,1.3153,1.3144,1.3145,1.3143,1.3122,1.3152,1.32,1.3204,1.3142,1.3142,1.3142,0,1.3335,1.3321,1.3321,1.3315,1.329,1.329,1.328,1.3263,1.3257,1.3246,1.3242,1.3231,1.3224,1.3216,1.3194,1.3183,1.3194,1.3173,1.3185,1.3186,1.3188,1.3188,1.3236,1.3186,1.3186,1.3186,1.3186,0,1.3366,1.3369,1.3338,1.3338,1.3341,1.3317,1.332,1.3307,1.3293,1.329,1.3266,1.3264,1.3235,1.323,1.3213,1.3214,1.3211,1.3202,1.3198,1.3204,1.3206,1.3201,1.3198,1.3187,1.3186,1.3186,1.3186,0,1.3408,1.3387,1.3386,1.3363,1.3357,1.3361,1.3341,1.334,1.3325,1.3322,1.332,1.3295,1.3288,1.3266,1.3253,1.3242,1.3248,1.3239,1.3253,1.325,1.3264,1.3263,1.331,1.3315,1.3261,1.3262,1.3262,0,1.3428,1.343,1.3408,1.3405,1.3396,1.3391,1.3385,1.3362,1.3357,1.334,1.3342,1.3333,1.3325,1.3315,1.3296,1.3286,1.3277,1.3294,1.3275,1.3283,1.3278,1.3278,1.3278,1.3298,1.3299,1.3299,1.33,0,1.3468,1.3458,1.3451,1.3442,1.3436,1.3427,1.3416,1.3415,1.3389,1.3385,1.3378,1.3372,1.3359,1.3351,1.3339,1.3328,1.331,1.3306,1.3309,1.3315,1.3324,1.332,1.3264,1.3305,1.3305,1.3304,1.3304,1.3304,1.35,1.3501,1.3486,1.3479,1.3469,1.3461,1.3459,1.3445,1.3439,1.3427,1.3414,1.3409,1.3394,1.3376,1.3367,1.3362,1.3352,1.3356,1.3356,1.3358,1.3361,1.3325,1.336,1.336,1.336,1.3359,1.3359,0,1.3538,1.3528,1.3522,1.3509,1.3504,1.3489,1.3477,1.3474,1.347,1.3458,1.3451,1.3444,1.3436,1.3418,1.3408,1.3409,1.34,1.3407,1.3407,1.3405,1.337,1.3369,1.3414,1.3414,1.3414,1.3414,1.3414,1.3414,1.3557,1.3559,1.3548,1.3544,1.3533,1.3529,1.3524,1.3516,1.3506,1.3499,1.3493,1.3482,1.3467,1.3457,1.345,1.3445,1.3443,1.3452,1.3444,1.3412,1.3407,1.3402,1.3401,1.3452,1.3452,1.3479,1.3479,1.348]},{"header":{"parameterUnit":"m.s-1","parameterCategory":1,"la1":30.2991,"la2":30.254,"lo1":-89.0895,"lo2":-89.0444,"dy":0.0017,"dx":0.0017,"nx":28,"ny":28,"refTime":"2023-11-20T09:00:00:Z","depth":0,"parameterNumber":3,"parameterNumberName":"V-component_of_WINDS"},"data":[0,0,0,0,0,0,0,0,0,0,0,0,0,0,0,0,0,0,0,0,0,0,0,0,0,0,0,0,0,0,0,0,0,0,0,0,0,0,0,0,0,0,0,0,0,0,0,0,0,0,0,0,0,0,0,0,0,0,-7.1318,-7.1319,0,-7.144,-7.1442,-7.1443,-7.1379,-7.1376,-7.1372,-7.1369,-7.149,-7.1496,-7.1502,0,0,0,0,0,0,0,0,0,0,0,0,0,-7.1023,-7.1029,-7.1317,-7.1319,-7.1321,-7.144,-7.1442,-7.1444,-7.1379,-7.1376,-7.1372,-7.1368,-7.1488,-7.1495,-7.1502,0,0,0,0,0,0,0,0,0,0,0,0,0,-7.1149,-7.1031,-7.1317,-7.1303,-7.1303,-7.144,-7.1442,-7.1444,-7.138,-7.1375,-7.137,-7.1366,-7.1485,-7.1494,-7.1504,-7.1659,0,0,-7.1532,-7.1536,0,0,0,0,0,0,0,0,-7.1142,-7.116,-7.1304,-7.1304,-7.1305,-7.1389,-7.1382,-7.1516,-7.1382,-7.1351,-7.1369,-7.1364,-7.146,-7.1471,-7.1505,-7.1665,-7.167,-7.1533,-7.1539,-7.1543,-7.1545,0,0,0,0,0,0,0,-7.1133,-7.1154,-7.1366,-7.1306,-7.1306,-7.1289,-7.1302,-7.1407,-7.1431,-7.1353,-7.1349,-7.1365,-7.1459,-7.1496,-7.1507,-7.1672,-7.1533,-7.1541,-7.1547,-7.155,-7.1968,-7.1973,0,0,0,0,0,0,-7.1126,-7.1147,-7.1362,-7.137,-7.121,-7.1299,-7.1313,-7.1367,-7.143,-7.1435,-7.1369,-7.1361,-7.1482,-7.1496,-7.1511,-7.1699,-7.1543,-7.1551,-7.1557,-7.1962,-7.1969,-7.1975,0,0,0,0,0,0,-7.112,-7.1146,-7.1357,-7.1257,-7.1283,-7.1309,-7.1371,-7.1372,-7.1409,-7.1442,-7.1445,-7.1402,-7.1479,-7.1498,-7.1624,-7.1702,-7.1556,-7.1564,-7.1956,-7.1964,-7.1972,-7.2075,0,0,0,0,0,0,-7.1112,-7.1144,-7.1204,-7.1259,-7.1289,-7.1469,-7.1375,-7.1378,-7.1426,-7.1417,-7.1474,-7.1478,-7.1476,-7.161,-7.1633,-7.1712,-7.1571,-7.1949,-7.196,-7.1969,-7.2064,-7.2085,-7.2103,0,0,0,0,0,-7.1101,-7.1227,-7.1208,-7.1234,-7.1365,-7.1474,-7.149,-7.1487,-7.1432,-7.1493,-7.1514,-7.1477,-7.169,-7.1624,-7.1649,-7.1732,-7.1944,-7.1957,-7.1968,-7.2056,-7.2081,-7.2103,0,0,0,0,0,0,-7.1178,-7.1234,-7.1213,-7.136,-7.1413,-7.1463,-7.1539,-7.1514,-7.1582,-7.1571,-7.1562,-7.1576,-7.1707,-7.1732,-7.1657,-7.1887,-7.1808,-7.1826,-7.1866,-7.189,-7.1909,-7.1901,-7.1579,0,0,0,0,0,-7.1212,-7.1298,-7.1341,-7.1467,-7.1495,-7.1513,-7.156,-7.1553,-7.1607,-7.1628,-7.1658,-7.1711,-7.1789,-7.1841,-7.1915,-7.2068,-7.2079,-7.2137,-7.2157,-7.2173,-7.2188,-7.2272,-7.2298,-7.2015,-7.2015,-7.2015,0,0,-7.1283,-7.1325,-7.1379,-7.1484,-7.1524,-7.1611,-7.1532,-7.1627,-7.1692,-7.1642,-7.1764,-7.1788,-7.1845,-7.1986,-7.2049,-7.201,-7.2269,-7.2188,-7.2201,-7.2208,-7.2287,-7.2314,-7.2338,-7.2023,-7.2022,-7.2021,0,0,-7.1458,-7.1498,-7.1608,-7.1651,-7.1713,-7.1725,-7.1751,-7.1806,-7.1821,-7.1943,-7.1908,-7.1983,-7.2119,-7.2162,-7.2201,-7.2395,-7.2363,-7.2419,-7.252,-7.2602,-7.2624,-7.2644,-7.2713,-7.2738,-7.2434,-7.2434,-7.2435,0,-7.1538,-7.1671,-7.1667,-7.1767,-7.1814,-7.1775,-7.1886,-7.1927,-7.201,-7.2042,-7.1999,-7.2169,-7.2205,-7.2355,-7.2403,-7.2436,-7.2466,-7.2412,-7.2621,-7.2641,-7.266,-7.2726,-7.2752,-7.2441,-7.244,-7.2439,-7.2439,0,-7.1766,-7.1859,-7.194,-7.2024,-7.208,-7.2184,-7.2196,-7.2253,-7.2242,-7.2257,-7.2382,-7.2424,-7.2507,-7.2542,-7.2531,-7.2692,-7.2666,-7.2622,-7.2543,-7.2693,-7.2755,-7.278,-7.245,-7.2448,-7.2446,-7.2444,0,0,-7.1991,-7.2074,-7.2104,-7.2142,-7.2209,-7.228,-7.2383,-7.2466,-7.2515,-7.2574,-7.2659,-7.2776,-7.2737,-7.2782,-7.2775,-7.2847,-7.2998,-7.2794,-7.2795,-7.2831,-7.3178,-7.3211,-7.324,-7.2978,-7.2982,-7.2986,-7.3173,0,-7.2171,-7.2353,-7.2354,-7.2521,-7.2607,-7.2572,-7.2661,-7.2712,-7.273,-7.2803,-7.2822,-7.2905,-7.2847,-7.2874,-7.2943,-7.2965,-7.3068,-7.2951,-7.3056,-7.306,-7.3043,-7.3272,-7.3307,-7.3482,-7.3197,-7.3202,-7.3205,0,-7.2405,-7.2475,-7.2651,-7.2708,-7.2743,-7.2824,-7.2901,-7.2972,-7.3029,-7.3036,-7.3088,-7.3071,-7.3175,-7.3093,-7.3236,-7.3157,-7.3199,-7.3217,-7.3224,-7.3233,-7.3141,-7.3288,-7.3537,-7.3564,-7.3243,-7.3239,-7.3237,0,-7.2553,-7.269,-7.2814,-7.2847,-7.2916,-7.2974,-7.3005,-7.3056,-7.3107,-7.3173,-7.3206,-7.3283,-7.3325,-7.3385,-7.3388,-7.3329,-7.3532,-7.3451,-7.3541,-7.3541,-7.3585,-7.3582,-7.3845,-7.3613,-7.3613,-7.3612,-7.3612,0,-7.2754,-7.2863,-7.2881,-7.2958,-7.3079,-7.3078,-7.3198,-7.3224,-7.3271,-7.335,-7.3324,-7.3399,-7.3399,-7.3476,-7.3479,-7.3597,-7.3616,-7.3624,-7.3624,-7.3627,-7.3626,-7.3655,-7.3643,-7.3619,-7.3618,-7.3616,-7.3615,0,-7.2939,-7.2955,-7.3088,-7.3143,-7.316,-7.3247,-7.3293,-7.3366,-7.3382,-7.3483,-7.3506,-7.3531,-7.362,-7.363,-7.3732,-7.3734,-7.3877,-7.3863,-7.3859,-7.3856,-7.3946,-7.3938,-7.4237,-7.4276,-7.4018,-7.4021,-7.4023,0,-7.3066,-7.315,-7.3215,-7.3268,-7.3303,-7.3387,-7.3439,-7.3442,-7.3497,-7.3568,-7.3632,-7.3719,-7.3788,-7.3931,-7.3957,-7.4035,-7.4023,-7.4123,-7.4035,-7.4036,-7.4025,-7.4021,-7.4029,-7.4139,-7.4142,-7.4145,-7.4146,0,-7.329,-7.3295,-7.3372,-7.3453,-7.3517,-7.358,-7.3639,-7.3683,-7.3693,-7.3756,-7.3848,-7.3902,-7.4008,-7.4094,-7.4172,-7.4201,-7.4176,-7.4174,-7.4199,-7.4203,-7.4197,-7.4202,-7.3905,-7.4167,-7.4165,-7.4164,-7.4162,-7.4162,-7.3451,-7.3524,-7.3582,-7.3669,-7.3715,-7.3771,-7.3842,-7.3868,-7.3946,-7.4034,-7.403,-7.4131,-7.4185,-7.4288,-7.4324,-7.4402,-7.4368,-7.4405,-7.4414,-7.4423,-7.4433,-7.4185,-7.4416,-7.4415,-7.4414,-7.4414,-7.4414,0,-7.3674,-7.371,-7.3791,-7.3876,-7.3944,-7.3917,-7.3981,-7.404,-7.413,-7.4184,-7.4254,-7.4359,-7.4443,-7.4477,-7.4558,-7.4615,-7.4605,-7.4636,-7.4632,-7.4639,-7.4457,-7.4428,-7.4643,-7.4643,-7.4643,-7.4642,-7.4642,-7.4642,-7.3798,-7.3922,-7.3934,-7.4079,-7.4114,-7.4215,-7.4254,-7.4306,-7.4349,-7.4469,-7.454,-7.4562,-7.4607,-7.4693,-7.4768,-7.4776,-7.4807,-7.4843,-7.4846,-7.4675,-7.4652,-7.463,-7.4602,-7.485,-7.485,-7.5022,-7.5023,-7.5024]}]]